Regional Weather Roundup
Issued by NWS

Home | Current Version | Previous Version | Graphics & Text | Print | Product List | Glossary On
Versions: 1 2 3 4 5 6 7 8 9 10 11 12 13 14 15 16 17 18 19 20 21 22 23 24 25 26 27 28 29 30 31 32 33 34 35 36 37 38 39 40 41 42 43 44 45 46 47 48 49 50
375
ASUS43 KDMX 291308
RWRIA

WEATHER ROUNDUP FOR IOWA
NATIONAL WEATHER SERVICE DES MOINES IA
800 AM CDT MON AUG 29 2016

NOTE: "FAIR" INDICATES FEW OR NO CLOUDS BELOW 12,000 FEET WITH NO
SIGNIFICANT WEATHER AND/OR OBSTRUCTIONS TO VISIBILITY.

* - THESE STATIONS ARE NOT NWS STATIONS...THUS NOT UNDER NWS
QUALITY CONTROL.  THEY ALSO DO NOT REPORT WEATHER SUCH
AS PRECIPITATION OR FOG.

IAZ001>003-012>014-020>022-031>034-043>046-291400-
   NORTHWEST IOWA

CITY           SKY/WX    TMP DP  RH WIND       PRES   REMARKS
CARROLL *      CLOUDY    68  68 100 CALM      30.19R
CHEROKEE *     MOSUNNY   66  66 100 CALM      30.18R
DENISON *      PTSUNNY   68  68 100 CALM      30.17R
LE MARS *      PTSUNNY   70  66  88 S6        30.17R
ORANGE CITY *  CLOUDY    66  64  94 CALM      30.17R
SHELDON *      MOSUNNY   66  66 100 S7        30.16R
SIOUX CITY     CLOUDY    70  66  87 SE8       30.16R
SPENCER        PTSUNNY   68  65  90 S6        30.17S
STORM LAKE *   SUNNY     68  66  94 S3        30.20R
$$

IAZ055>058-069>071-079>083-090>094-291400-
   SOUTHWEST IOWA

CITY           SKY/WX    TMP DP  RH WIND       PRES   REMARKS
ATLANTIC *     LGT RAIN  70  68  94 S7        30.18R
AUDUBON *      CLOUDY    66  64  94 CALM      30.20R
CLARINDA *       N/A     70  70 100 MISG      30.20R
COUNCIL BLFS * CLOUDY    70  68  94 SE7       30.19R
CRESTON *      SUNNY     70  70 100 CALM      30.20R
HARLAN  *      PTSUNNY   68  68 100 S7        30.23R FOG
LAMONI         SUNNY     72  69  90 SE5       30.18R
RED OAK *      CLOUDY    72  70  94 NE7       30.20R
SHENANDOAH *   SUNNY     70 -38   1 CALM      30.18R
$$

IAZ047>049-059>061-072>074-084-291400-
   CENTRAL IOWA

CITY           SKY/WX    TMP DP  RH WIND       PRES   REMARKS
AMES           CLOUDY    71  71 100 SE5       30.20R
ANKENY *         N/A    N/A N/A N/A MISG        N/A
BOONE *        CLOUDY    70  70 100 SE9       30.20R FOG
CHARITON *       N/A     72  72 100 MISG      30.19R FOG
DES MOINES     CLOUDY    73  71  93 E8        30.18R
GRINNELL*      CLOUDY    69  67  93 E5        30.21S
KNOXVILLE *    CLOUDY    70  70 100 E3        30.19R FOG
MARSHALLTOWN   CLOUDY    70  69  97 SE5       30.20R
NEWTON *       CLOUDY    70  70 100 SE5       30.19S
PERRY *          N/A     70  70 100 CALM      30.19R
$$

IAZ004>006-015-016-023>025-035-036-291400-
   NORTH CENTRAL IOWA

CITY           SKY/WX    TMP DP  RH WIND       PRES   REMARKS
ALGONA *       SUNNY     68  66  94 SE7       30.19R
ESTHERVILLE    MOSUNNY   66  66 100 S7        30.18R
FORT DODGE *   CLOUDY    70  66  88 SE5       30.20R
MASON CITY     CLOUDY    67  67 100 SE7       30.23R
FOREST CITY *    N/A    N/A N/A N/A MISG        N/A
WEBSTER CITY * CLOUDY    70  70 100 SE8       30.18S FOG
IOWA FALLS *     N/A     70  69  96 SE5       30.22R
$$

IAZ007>011-017>019-026>030-037>042-050>054-066-291400-
   NORTHEAST IOWA

CITY           SKY/WX    TMP DP  RH WIND       PRES   REMARKS
CEDAR RAPIDS   CLOUDY    69  69 100 E6        30.20S FOG
CHARLES CITY * MOSUNNY   68  68 100 SE5       30.22R
CLINTON *      CLOUDY    70  69  97 E5        30.22S FOG
DECORAH *      CLOUDY    68  68 100 CALM      30.23R FOG
DUBUQUE        CLOUDY    69  68  96 SE6       30.24R FOG
MONTICELLO *   CLOUDY    68  68 100 CALM      30.22R FOG
OELWEIN *      CLOUDY    68  68 100 E5        30.23R
WATERLOO       CLOUDY    69  67  93 VRB3      30.19S
$$

IAZ064-065-067-068-078-291400-
   EAST CENTRAL IOWA

CITY           SKY/WX    TMP DP  RH WIND       PRES   REMARKS
DAVENPORT      FOG       69  69 100 SE8       30.22R VSB 1/4
IOWA CITY      CLOUDY    71  68  90 E7        30.22R
MT. PLEASANT * MOSUNNY   74  74 100 E5        30.20R FOG
QUAD CITIES    CLOUDY    70  69  97 E7        30.21R FOG
$$

IAZ062-063-075>077-085>089-095>099-291400-
   SOUTHEAST IOWA

CITY           SKY/WX    TMP DP  RH WIND       PRES   REMARKS
BURLINGTON     MOSUNNY   72  71  97 E6        30.20R
FAIRFIELD *    CLOUDY    72  70  94 E5        30.20R
FORT MADISON * MOSUNNY   72  72 100 E3        30.21R
KEOKUK *       SUNNY     72  72 100 E7        30.19R
OSKALOOSA *    RAIN      69  68  98 SE3       30.21R
CENTERVILLE *  PTSUNNY   72  70  94 CALM      30.21R
OTTUMWA        TSTM      70  68  93 CALM      30.20R FOG
WASHINGTON *   CLOUDY    72  70  94 E5        30.22R FOG
$$

ABBREVIATIONS USED IN REMARKS
   TC - TEMPERATURES IN CELSIUS
  WCI - WIND CHILL INDEX
   HX - HEAT INDEX
  VSB - VISIBILITY
$$





USA.gov is the U.S. government's official web portal to all federal, state and local government web resources and services.